Regional Weather Roundup
Issued by NWS

Home | Current Version | Previous Version | Text Only | Print | Product List | Glossary On
Versions: 1 2 3 4 5 6 7 8 9 10 11 12 13 14 15 16 17 18 19 20 21 22 23 24 25 26 27 28 29 30 31 32 33 34 35 36 37 38 39 40 41 42 43 44 45 46 47 48 49 50
000
ASUS43 KDMX 230106
RWRIA

WEATHER ROUNDUP FOR IOWA
NATIONAL WEATHER SERVICE DES MOINES IA
800 PM CDT MON MAY 22 2017

NOTE: "FAIR" INDICATES FEW OR NO CLOUDS BELOW 12,000 FEET WITH NO
SIGNIFICANT WEATHER AND/OR OBSTRUCTIONS TO VISIBILITY.

* - THESE STATIONS ARE NOT NWS STATIONS...THUS NOT UNDER NWS
QUALITY CONTROL.  THEY ALSO DO NOT REPORT WEATHER SUCH
AS PRECIPITATION OR FOG.

IAZ001>003-012>014-020>022-031>034-043>046-230200-
   NORTHWEST IOWA

CITY           SKY/WX    TMP DP  RH WIND       PRES   REMARKS
CARROLL *      CLOUDY    64  52  63 NW7       29.85R
CHEROKEE *     CLEAR     60  49  68 NW7       29.85R
DENISON *      CLOUDY    63  48  59 W7        29.88R
LE MARS *      PTCLDY    61  48  63 NW14G23   29.88R
ORANGE CITY *  CLEAR     57  50  77 NW15G24   29.87R
SHELDON *      PTCLDY    57  48  72 NW16G23     N/A
SIOUX CITY     PTCLDY    63  48  58 NW17      29.85S
SPENCER        CLEAR     57  50  77 NW12      29.83R
STORM LAKE *   CLEAR     61  48  63 NW16G24   29.85R
$$

IAZ055>058-069>071-079>083-090>094-230200-
   SOUTHWEST IOWA

CITY           SKY/WX    TMP DP  RH WIND       PRES   REMARKS
ATLANTIC *     LGT RAIN  59  55  88 SW8       29.87R
AUDUBON *      CLOUDY    59  55  88 W3        29.87R
CLARINDA *     CLOUDY    63  55  77 SW6       29.91R
COUNCIL BLFS * CLOUDY    61  55  82 W6        29.88R
CRESTON *      PTCLDY    63  52  67 SW8       29.89R
HARLAN  *      CLOUDY    61  55  82 W9        29.90R
LAMONI         MOCLDY    59  52  77 SW9       29.88S
RED OAK *      CLOUDY    61  54  77 W7        29.87S
SHENANDOAH *   CLOUDY    64  55  72 CALM      29.89S
$$

IAZ047>049-059>061-072>074-084-230200-
   CENTRAL IOWA

CITY           SKY/WX    TMP DP  RH WIND       PRES   REMARKS
AMES           LGT RAIN  60  53  77 W15G23    29.83R
ANKENY *       CLOUDY    66  52  59 SW13G20   29.85R
BOONE *        CLOUDY    57  55  94 W5        29.84R
DES MOINES     CLOUDY    66  53  63 SW13      29.85R
GRINNELL*      CLOUDY    64  53  68 SW15      29.85R
MARSHALLTOWN   PTCLDY    65  54  67 SW13      29.81R
NEWTON *       CLOUDY    64  54  68 SW15G21   29.84R
PELLA *        CLOUDY    62  53  72 SW12G18   29.87R
PERRY *          N/A     61  56  83 W10       29.84F
$$

IAZ004>006-015-016-023>025-035-036-230200-
   NORTH CENTRAL IOWA

CITY           SKY/WX    TMP DP  RH WIND       PRES   REMARKS
ALGONA *       CLOUDY    57  54  88 N9        29.83R
CLARION *      CLOUDY    59  55  88 NW14      29.83R
ESTHERVILLE    CLOUDY    55  53  93 NE6       29.82S
FORT DODGE *   CLOUDY    61  50  67 NW5       29.84S
MASON CITY     CLOUDY    54  51  90 N10       29.83R
FOREST CITY *  MOCLDY    54  48  82 N16       29.81S
WEBSTER CITY * CLOUDY    59  54  82 W9        29.81S
IOWA FALLS *   HVY RAIN  58  54  89 W31G51    29.87R
$$

IAZ007>011-017>019-026>030-037>042-050>054-066-230200-
   NORTHEAST IOWA

CITY           SKY/WX    TMP DP  RH WIND       PRES   REMARKS
CEDAR RAPIDS   MOCLDY    62  58  86 S12       29.82S
CHARLES CITY * MOCLDY    63  57  82 CALM      29.79R
CLINTON *      CLOUDY    61  55  81 SW10      29.87R
DECORAH *      PTCLDY    59  52  77 S6        29.79F
DUBUQUE        PTCLDY    60  56  86 S10       29.83R
MONTICELLO *   CLOUDY    63  57  82 S12G17    29.82S
OELWEIN *      CLOUDY    59  55  88 E3        29.80F
WATERLOO       CLOUDY    66  52  60 SW10      29.78S
$$

IAZ064-065-067-068-078-230200-
   EAST CENTRAL IOWA

CITY           SKY/WX    TMP DP  RH WIND       PRES   REMARKS
DAVENPORT      CLOUDY    61  54  77 SW10      29.88R
IOWA CITY      PTCLDY    64  55  72 S13       29.86S
MT. PLEASANT * CLOUDY    60  54  81 SW10G18   29.90S
MUSCATINE *    MOCLDY    63  55  77 SW12G17   29.88R
QUAD CITIES    CLOUDY    62  54  74 S13       29.87S
$$

IAZ062-063-075>077-085>089-095>099-230200-
   SOUTHEAST IOWA

CITY           SKY/WX    TMP DP  RH WIND       PRES   REMARKS
BURLINGTON     CLOUDY    60  58  92 SW10      29.91S
FAIRFIELD *    CLOUDY    61  54  77 SW15      29.88S
FORT MADISON * CLOUDY    61  57  88 SW7       29.93R
KEOKUK *       CLOUDY    61  57  88 SW10      29.93S
OSKALOOSA *      N/A     61  55  80 SW15      29.86F
CENTERVILLE *    N/A     57  54  88 S8        29.91F
OTTUMWA        CLOUDY    62  56  80 SW14      29.87S
WASHINGTON *   CLOUDY    63  55  77 SW16      29.89R
$$

ABBREVIATIONS USED IN REMARKS
   TC - TEMPERATURES IN CELSIUS
  WCI - WIND CHILL INDEX
   HX - HEAT INDEX
  VSB - VISIBILITY
$$





USA.gov is the U.S. government's official web portal to all federal, state and local government web resources and services.